Theta_e
324 325 325 326 326 326 327 324 325 325 321 321 320 319 324 324 323 314 305 312 317 326 321 312 310 309 310 308 310 309 299 296 299 300 299 304 301 303 303 303 303 307 309 319 327
323 323 324 325 325 326 327 327 325 324 323 323 323 326 319 323 315 308 319 322 328 328 310 307 305 307 304 305 305 301 298 300 304 303 301 303 302 302 298 300 301 305 313 325 326
322 323 323 324 324 325 326 327 327 326 326 326 327 326 324 318 305 306 325 327 328 325 312 311 308 306 302 304 302 301 299 303 302 303 304 303 301 303 299 298 301 304 312 321 323
322 322 323 323 323 324 324 326 326 326 326 326 326 324 323 315 296 311 327 328 328 318 311 308 306 302 300 299 303 297 301 301 304 303 303 302 303 299 300 298 304 306 315 320 320
320 321 322 323 323 323 324 325 325 325 324 325 324 323 316 304 302 318 326 329 322 314 308 304 302 303 299 301 301 299 299 301 302 301 300 304 301 298 299 302 304 307 314 317 319
320 320 320 321 322 323 323 324 324 324 324 324 324 323 311 296 311 317 319 319 314 310 307 305 303 305 301 300 299 301 300 299 300 301 300 300 297 297 300 302 302 305 306 312 316
319 319 319 320 321 322 323 324 323 323 323 323 323 315 304 300 311 316 314 312 312 310 305 307 306 303 303 300 301 300 296 296 297 298 298 298 295 296 298 302 301 301 301 305 311
319 318 319 319 320 321 322 322 322 322 322 323 323 312 299 313 311 312 312 310 310 310 309 309 307 304 302 301 299 296 295 291 296 297 297 297 291 299 300 298 298 298 298 301 304
318 317 318 319 319 320 321 321 321 321 322 322 313 307 296 312 305 309 311 307 308 308 309 307 307 301 299 294 291 293 287 290 292 297 296 295 291 295 298 296 295 296 298 299 301
318 317 318 318 319 319 320 320 320 320 317 315 310 302 303 301 306 307 309 309 305 305 303 303 300 296 294 291 285 287 287 291 289 293 294 292 292 295 296 296 295 296 296 296 298
318 317 317 318 319 320 317 314 306 303 306 299 299 299 300 305 308 305 307 305 305 302 294 299 293 289 292 293 293 291 290 289 291 294 293 292 292 294 297 296 296 296 297 298 298
317 317 318 318 319 319 314 303 303 305 296 303 301 302 305 305 299 302 307 299 299 293 297 295 290 295 297 295 292 290 290 289 290 294 292 290 291 294 296 295 296 297 297 298 299
317 317 317 317 318 315 310 306 310 307 295 298 301 300 302 304 298 299 302 300 296 293 294 291 294 297 295 291 290 289 289 288 289 291 291 286 287 290 294 296 297 298 296 296 296
317 316 316 317 311 310 307 311 313 310 289 291 295 299 303 302 297 303 303 299 296 292 294 293 294 294 293 291 292 287 292 291 291 287 282 287 279 287 291 292 294 295 295 293 295
316 316 316 315 308 305 309 313 314 306 278 293 294 303 303 297 297 297 302 298 293 293 293 290 290 291 291 292 294 290 292 291 290 286 285 284 282 285 290 289 292 294 295 297 297
316 315 315 311 311 310 312 314 309 288 278 288 293 294 293 295 296 297 297 299 297 293 293 291 294 293 293 293 294 293 291 291 288 286 278 283 283 282 287 290 291 293 296 297 296
315 315 312 313 305 314 314 306 287 280 292 288 288 293 292 291 293 293 292 290 288 285 285 289 289 292 294 290 292 291 287 279 278 277 277 283 282 285 289 290 293 292 296 297 298
314 314 311 310 312 316 309 293 280 286 288 293 291 292 288 291 291 292 290 287 291 289 287 284 282 289 292 291 288 288 287 281 274 276 278 281 279 285 290 292 293 294 297 298 298
309 304 304 304 310 313 299 283 283 288 292 290 291 287 287 290 290 290 289 288 290 291 285 284 284 291 291 291 292 287 284 288 281 275 278 280 284 289 290 290 291 292 296 296 296
299 300 299 304 308 308 293 286 289 297 295 293 286 289 285 287 287 288 288 291 290 292 290 288 281 289 289 291 290 289 290 282 282 271 271 278 280 282 287 289 290 292 295 295 295
298 292 298 303 307 298 286 288 292 299 297 292 289 288 288 287 288 287 288 291 293 290 291 288 288 284 288 286 286 286 285 286 286 284 277 275 279 285 289 291 290 292 295 294 295
294 286 298 302 293 293 287 292 296 296 299 296 295 292 289 289 287 287 287 290 294 292 287 290 288 281 284 288 289 288 287 287 281 279 280 281 281 291 290 293 294 295 295 296 296
287 286 298 297 286 287 291 292 295 296 295 295 293 294 293 289 284 289 290 294 294 291 289 290 286 279 282 285 288 286 288 289 288 285 279 277 280 290 290 293 295 294 295 296 296
291 285 287 288 287 289 288 289 289 296 296 296 295 295 291 289 291 288 290 293 295 294 295 294 289 285 281 284 286 283 286 287 287 281 281 282 284 287 290 292 293 294 294 295 295
290 285 287 284 285 286 289 289 288 289 294 295 292 293 291 287 288 287 291 291 294 295 293 291 283 285 287 288 288 286 286 287 285 287 283 285 286 288 290 292 294 294 294 295 294
287 285 287 286 286 286 287 285 288 290 291 290 290 292 292 288 289 286 290 290 289 292 291 292 281 284 281 287 287 282 287 287 287 288 287 286 285 290 293 294 293 295 295 294 293
291 292 289 287 286 285 286 285 286 288 288 290 293 292 290 292 294 295 295 294 294 291 289 289 284 281 277 283 283 279 284 287 287 289 288 284 289 291 290 293 293 294 295 294 293
Wind_Speed
18 17 13 16 15 14 18 18 16 14 12 12 8 3 4 6 5 1 4 4 1 4 6 4 3 5 7 2 2 3 1 7 13 5 6 9 5 3 2 7 2 4 4 12 13
18 16 13 15 16 15 15 18 19 17 16 15 11 9 4 3 2 10 6 4 4 8 3 4 3 3 4 5 3 4 3 8 7 5 10 9 8 7 3 6 4 6 4 12 11
17 17 15 15 15 14 14 13 13 15 17 13 13 11 9 5 1 7 14 19 12 8 4 1 9 6 6 1 4 5 5 9 5 6 9 9 4 7 5 6 9 12 9 11 9
17 17 15 15 15 15 12 13 13 12 12 11 12 11 12 5 7 6 8 19 13 6 5 4 9 10 10 6 8 3 3 6 3 3 1 10 5 3 7 3 5 8 16 10 10
18 16 16 14 14 15 14 13 13 14 13 14 12 11 8 8 8 6 5 9 11 10 11 8 11 11 10 12 7 5 5 2 6 3 2 7 5 2 5 8 8 9 13 11 9
17 15 17 15 14 14 14 14 14 14 13 13 13 13 6 14 2 9 11 11 13 12 9 9 7 13 5 7 9 9 6 8 5 5 3 5 4 3 7 10 9 7 7 10 10
18 18 16 16 14 14 14 14 13 13 14 14 14 11 10 11 0 6 9 7 10 12 10 12 10 4 5 4 2 5 7 4 4 5 2 2 4 7 4 7 8 8 7 7 9
21 19 16 17 14 15 15 14 13 13 13 12 12 9 6 1 5 5 6 6 6 7 7 9 4 5 2 4 4 6 6 5 5 6 1 2 4 13 10 10 8 9 9 9 8
23 21 18 18 16 16 16 14 12 11 12 13 7 8 7 2 5 8 7 7 8 6 4 3 3 3 1 5 4 8 5 7 4 5 5 5 4 4 4 4 6 7 8 9 9
24 23 22 19 18 18 18 14 11 11 8 9 6 6 6 4 4 8 7 6 7 9 6 6 5 5 4 7 11 7 5 8 7 7 3 5 8 4 5 5 6 6 6 5 7
24 25 24 23 21 23 19 11 9 7 14 8 10 6 6 3 5 5 5 7 6 7 7 8 6 12 11 10 8 5 9 6 6 2 5 7 5 9 8 8 8 7 7 8 9
29 27 25 25 23 23 16 10 15 9 10 11 1 7 4 3 5 7 6 6 8 14 8 6 12 10 10 11 4 5 10 6 5 6 3 4 9 8 8 8 8 9 9 8 7
29 29 27 26 24 17 17 16 15 20 7 7 3 10 5 4 4 11 9 2 10 11 14 8 7 9 7 4 6 4 5 6 5 5 2 2 7 8 9 10 7 8 4 1 3
29 29 29 27 15 14 17 14 4 3 6 10 8 7 6 4 2 0 3 3 7 16 9 6 3 9 9 8 7 4 6 9 11 7 3 5 5 4 7 8 5 5 5 4 3
31 30 30 24 10 17 8 6 4 1 5 16 12 3 6 6 11 3 2 3 7 7 7 5 6 7 5 7 8 4 8 7 4 3 2 3 1 7 6 4 7 8 7 8 7
31 31 32 14 7 14 8 7 2 3 7 7 8 11 11 6 2 5 5 1 2 5 6 3 2 2 2 6 4 9 9 6 2 3 1 7 7 6 5 6 5 7 8 8 7
29 31 22 8 10 11 10 5 5 8 9 9 9 13 17 9 6 8 13 7 8 8 6 4 3 2 1 9 3 4 7 3 2 1 6 7 5 10 3 2 8 10 9 8 7
27 29 9 3 2 12 6 7 7 14 13 5 11 16 14 15 3 8 11 11 7 7 10 8 5 9 5 4 8 7 6 7 8 5 4 5 7 8 2 8 9 10 10 8 8
7 4 5 2 2 5 12 15 13 13 12 8 14 18 11 12 9 7 13 16 14 9 6 8 2 3 4 2 6 6 6 1 8 3 5 6 6 1 6 5 6 8 9 8 7
2 3 4 2 1 7 11 15 7 0 17 14 10 14 20 17 8 11 17 17 11 10 4 2 7 3 0 1 2 3 7 4 2 5 4 5 4 6 7 9 9 9 9 9 7
3 4 2 4 1 9 16 13 8 2 10 14 9 12 14 14 10 11 15 2 16 7 7 1 5 1 4 6 8 3 3 3 5 5 6 3 8 3 5 10 11 9 9 9 8
3 3 2 3 8 10 11 10 4 7 3 2 2 6 13 15 11 10 12 10 10 13 11 3 6 4 3 2 3 3 4 5 5 5 1 4 7 2 5 8 12 10 9 9 8
3 2 3 3 9 13 6 13 2 6 4 4 4 3 1 13 5 5 7 4 3 9 16 9 2 4 4 3 3 4 5 5 4 3 6 7 8 2 1 6 8 10 9 9 9
2 1 2 3 3 3 11 13 8 3 3 2 3 5 4 8 4 10 5 2 2 3 4 5 4 7 11 8 9 7 8 7 6 3 5 8 4 5 7 8 8 9 8 8 7
1 1 1 3 2 2 8 11 13 6 2 3 1 5 7 4 6 4 6 5 1 4 3 6 9 5 4 3 3 6 15 15 12 22 11 19 13 9 11 11 13 9 10 11 10
3 3 2 2 4 4 4 6 15 13 9 5 4 11 5 6 6 8 10 7 6 4 5 1 2 4 3 5 5 2 6 17 21 22 14 12 8 7 12 8 10 12 12 12 10
1 1 1 6 5 2 3 4 4 10 1 6 10 6 4 5 6 4 6 6 9 11 8 7 6 4 3 5 5 4 18 15 14 20 21 17 17 5 6 8 11 12 12 13 12
Wind_Direction
197 188 202 199 189 185 186 183 177 168 172 178 172 158 66 115 113 327 243 264 233 81 120 142 182 249 261 233 325 281 229 245 256 273 120 127 130 308 22 114 84 62 30 118 128
199 186 196 200 193 183 182 184 179 174 179 177 199 189 158 65 227 218 213 312 208 162 153 213 159 173 260 192 208 218 196 238 227 228 132 158 165 153 141 132 128 95 44 112 131
201 189 190 201 188 188 172 170 173 172 189 191 183 166 152 151 200 226 188 203 215 181 158 9 281 173 240 165 210 230 199 246 14 55 113 160 213 149 197 178 184 167 156 140 149
198 194 187 194 184 187 183 173 168 160 172 172 173 170 161 202 182 164 154 204 166 168 107 209 246 200 236 196 212 231 271 338 101 38 55 154 145 164 224 99 49 104 151 156 167
199 194 177 178 178 184 181 177 165 158 172 173 173 161 144 216 247 141 164 171 143 165 174 210 228 206 215 197 166 221 134 50 81 110 63 99 134 227 216 119 74 77 145 163 178
191 193 181 178 172 180 177 169 161 161 171 170 167 168 256 224 220 144 135 155 173 163 186 208 234 232 223 200 183 189 144 123 174 123 33 141 118 45 229 146 128 135 161 169 178
195 190 180 169 175 173 169 159 163 164 165 169 166 182 238 226 30 133 140 182 164 186 167 210 240 279 242 192 159 138 115 130 166 159 125 289 139 218 157 134 164 178 190 196 193
194 187 175 164 177 167 159 154 162 160 162 163 161 220 247 118 120 137 196 177 189 200 218 195 201 275 34 110 132 174 141 159 164 138 148 140 235 221 169 150 183 192 194 191 211
186 180 173 161 171 159 144 146 150 156 153 137 152 234 227 140 169 175 186 169 171 179 190 159 167 231 4 216 158 200 170 179 157 192 132 184 235 107 63 154 212 230 222 177 191
180 177 169 157 161 151 132 134 135 138 157 164 260 204 184 217 151 151 190 166 149 143 128 188 177 179 217 217 195 174 219 183 156 198 189 174 259 159 173 197 216 240 213 185 201
180 173 168 156 160 146 136 136 143 172 192 177 174 241 145 80 121 178 168 173 127 169 160 209 189 204 209 222 254 176 198 175 125 118 144 219 243 245 204 193 207 241 236 192 209
172 171 163 156 160 152 171 189 177 140 179 243 175 195 79 288 118 154 166 166 172 175 174 164 213 197 223 208 227 262 189 199 56 104 102 225 240 251 243 235 199 207 225 222 194
167 163 159 154 155 161 193 214 188 155 151 181 231 178 159 204 152 176 172 203 181 181 194 173 176 228 155 156 173 224 184 147 133 127 269 340 278 233 228 225 216 210 189 54 82
168 159 156 148 153 173 210 202 65 53 162 160 194 204 143 212 117 208 211 183 202 192 163 224 202 166 160 178 169 168 86 110 124 137 206 177 269 234 194 196 187 205 200 219 118
166 157 152 153 139 182 180 189 106 332 204 165 151 129 147 186 137 217 66 213 170 167 155 174 149 159 178 181 187 161 113 123 129 135 92 214 91 257 106 203 190 184 141 95 85
160 156 152 176 148 174 174 106 133 202 229 163 140 160 154 160 136 117 141 140 36 74 67 73 302 149 139 46 132 146 105 89 118 127 281 204 164 265 175 198 104 121 114 125 133
156 154 154 159 159 142 137 130 141 204 138 164 186 169 166 158 126 175 174 168 153 137 166 126 117 83 152 85 14 144 139 117 155 172 215 334 179 242 155 93 151 142 130 126 147
152 150 139 81 117 132 167 168 185 198 192 161 162 160 173 148 127 168 157 191 248 213 138 159 208 172 193 152 171 203 182 155 172 178 191 344 233 250 88 114 94 112 121 122 108
102 96 88 70 113 152 172 185 198 189 182 131 135 163 182 177 133 145 183 194 200 188 167 170 108 59 53 44 141 196 213 113 105 17 76 206 265 240 141 136 131 136 135 134 116
28 79 75 336 152 156 193 195 208 93 151 153 164 179 184 176 146 174 182 196 195 188 96 177 110 336 263 190 93 167 152 77 350 127 221 245 242 230 195 195 175 166 154 135 127
37 87 22 7 179 174 204 188 179 15 138 164 193 176 184 178 179 193 182 208 184 138 118 91 99 260 141 210 161 151 189 201 142 155 163 169 254 246 202 171 168 169 150 150 147
28 116 15 255 166 197 209 187 223 138 41 240 313 180 185 166 184 192 194 195 164 151 161 132 102 145 174 123 53 347 193 163 141 230 206 149 266 12 2 140 148 152 139 136 134
45 53 1 342 198 181 158 216 281 134 168 158 203 106 273 161 147 166 139 352 54 154 162 171 170 95 26 19 48 223 190 228 111 79 199 136 257 330 306 122 136 142 141 140 142
135 121 61 17 49 201 173 203 203 115 123 93 98 77 113 154 120 182 124 151 65 91 83 112 144 180 195 209 132 187 191 204 179 134 180 220 161 214 192 170 152 148 143 145 146
338 84 330 156 160 127 170 170 195 164 66 187 77 209 159 132 154 193 116 110 112 135 132 162 188 162 73 74 106 175 188 190 204 223 189 231 219 197 193 186 182 155 150 157 154
135 173 178 82 116 133 123 185 198 206 158 195 207 182 193 150 174 178 132 167 175 162 164 165 181 112 37 83 83 62 202 194 208 225 235 250 253 181 188 160 154 169 165 169 162
179 205 164 140 135 97 129 132 159 145 324 295 195 143 183 113 70 77 95 126 156 156 165 146 131 116 224 110 84 326 216 197 213 224 216 230 224 161 135 159 172 177 175 172 166